This demonstration page uses our WeatherBlox Daily Observations layout. Learn more.

Left ArrowRight Arrow

39.92423, -83.80882

Hourly Observations for May 15, 2018

Temp ( °F °C ) Dew Point ( °F °C ) Humidity (%) Winds ( mph kmh ) Pressure ( in mb ) Visibility ( mi km ) Precip ( " mm )
12:56 am 00:56 Clear 73 22.8 64 17.8 74 74 SSW 5 7 29.86 1011 10 16.0934 0 0
1:56 am 01:56 Clear 72 22.2 63 17.2 73 73 S 3 6 29.86 1011 10 16.0934 0 0
2:56 am 02:56 Clear 72 22.2 63 17.2 73 73 SW 8 13 29.87 1011 10 16.0934 0 0
3:56 am 03:56 Clear 69 20.6 63 17.2 81 81 SW 5 7 29.85 1011 10 16.0934 0 0
4:56 am 04:56 Clear 70 21.1 63 17.2 79 79 SSW 7 11 29.85 1011 10 16.0934 0 0
5:56 am 05:56 Clear 70 21.1 63 17.2 79 79 SSW 7 11 29.85 1011 10 16.0934 0 0
6:56 am 06:56 Sunny 70 21.1 63 17.2 79 79 SW 10 17 29.87 1012 10 16.0934 0 0
7:56 am 07:56 Sunny 74 23.3 63 17.2 69 69 WSW 14 22 29.88 1012 10 16.0934 0 0
8:56 am 08:56 Sunny 76 24.4 64 17.8 67 67 W 12 19 29.89 1012 10 16.0934 0 0
9:56 am 09:56 Sunny 78 25.6 64 17.8 62 62 WNW 7 11 29.89 1012 10 16.0934 0 0
10:56 am 10:56 Sunny 80 26.7 64 17.8 58 58 WSW 6 9 29.9 1013 10 16.0934 0 0
11:56 am 11:56 Mostly Sunny 82 27.8 63 17.2 53 53 VRB 6 9 29.92 1013 10 16.0934 0 0
12:56 pm 12:56 Mostly Sunny 84 28.9 63 17.2 49 49 W 13 20 29.92 1013 10 16.0934 0 0
1:56 pm 13:56 Mostly Cloudy 85 29.4 63 17.2 48 48 WSW 12 19 29.91 1013 10 16.0934 0 0
2:56 pm 14:56 Mostly Cloudy 87 30.6 63 17.2 45 45 W 12 19 29.88 1012 10 16.0934 0 0
3:30 pm 15:30 Cloudy 79 26 63 17 58 58 NNW 14 22 29.85 1011 10 16.0934 0 0
3:56 pm 15:56 Cloudy with Rain 75 23.9 66 18.9 74 74 NNW 7 11 29.9 1013 10 16.0934 0.03 0.762
4:12 pm 16:12 Cloudy with Nearby Thunderstorms 73 23 68 20 83 83 ENE 5 7 29.88 1012 4 6.43736 0.02 0.508
4:16 pm 16:16 Cloudy with Light Thunderstorms 73 23 68 20 83 83 ENE 6 9 29.88 1012 5 8.0467 0.02 0.508
4:37 pm 16:37 Partly Cloudy 75 24 66 19 74 74 NNW 15 24 29.88 1012 10 16.0934 0.04 1.016
4:56 pm 16:56 Mostly Sunny 77 25 66 18.9 69 69 NNE 10 17 29.89 1012 10 16.0934 0.04 1.016
5:21 pm 17:21 Mostly Cloudy with Thunderstorms 75 24 64 18 69 69 NNE 6 9 29.88 1012 10 16.0934 0.01 0.254
5:42 pm 17:42 Cloudy with Heavy Thunderstorms 70 21 66 19 88 88 N 13 20 29.91 1013 1.25 2.011675 0.02 0.508
5:49 pm 17:49 Cloudy with Heavy Thunderstorms 70 21 66 19 88 88 N 9 15 29.91 1013 3 4.82802 0.03 0.762
5:56 pm 17:56 Cloudy with Light Thunderstorms 70 21.1 67 19.4 90 90 N 14 22 29.93 1014 8 12.87472 0.04 1.016
6:05 pm 18:05 Cloudy with Light Thunderstorms 70 21 66 19 88 88 NNE 12 19 29.91 1013 10 16.0934 0.01 0.254
6:13 pm 18:13 Cloudy with Thunderstorms 70 21 68 20 94 94 ENE 9 15 29.91 1013 10 16.0934 0.01 0.254
6:26 pm 18:26 Cloudy with Nearby Thunderstorms 72 22 68 20 88 88 ESE 9 15 29.91 1013 10 16.0934 0.02 0.508
6:41 pm 18:41 Mostly Cloudy 70 21 68 20 94 94 ESE 9 15 29.91 1013 10 16.0934 0.03 0.762
6:56 pm 18:56 Partly Cloudy 71 21.7 67 19.4 87 87 SE 7 11 29.92 1013 10 16.0934 0.04 1.016
7:56 pm 19:56 Sunny 70 21.1 67 19.4 90 90 ENE 7 11 29.91 1013 10 16.0934 0.03 0.762
8:48 pm 20:48 Mostly Cloudy 68 20 64 18 88 88 N 7 11 29.91 1013 10 16.0934 0.02 0.508
8:56 pm 20:56 Partly Cloudy 68 20 65 18.3 90 90 NNE 7 11 29.92 1013 10 16.0934 0.02 0.508
9:56 pm 21:56 Mostly Clear 68 20 65 18.3 90 90 NNE 9 15 29.95 1014 10 16.0934 0.06 1.524
10:56 pm 22:56 Clear 66 18.9 64 17.8 93 93 NE 10 17 29.96 1015 10 16.0934 0.07 1.778
11:56 pm 23:56 Clear 64 17.8 62 16.7 93 93 NE 9 15 29.96 1015 10 16.0934 0.11 2.794

Powered by AerisWeather